Flight Track Log - Related Links

Times and Time Zones

All times are in EDT time to prevent confusion due to time zone crossing. See the N319EE flight status page for this flight to view local times or setup timezone preferences in your user account.

Time Position Orientation Groundspeed Altitude Reporting Facility
EDT Latitude Longitude Course Direction KTS MPH feet Rate Location/Type
Wed 01:23:41 PM 43.0800 -77.6369 122° Southeast 180 207 3,000  Level Cleveland Center
Wed 01:24:00 PM 43.0775 -77.6292 114° Southeast 177 204 3,200 1,481 Climbing Cleveland Center
Wed 01:25:02 PM 43.0683 -77.5436 98° East 184 212 5,000 1,694 Climbing Cleveland Center
Wed 01:26:04 PM 43.0614 -77.4631 97° East 203 234 6,700 1,597 Climbing Cleveland Center
Wed 01:27:06 PM 43.0556 -77.3822 96° East 214 246 8,300 1,548 Climbing Cleveland Center
Wed 01:28:00 PM 43.0735 -77.1074 100° East  Level Estimated
Wed 01:28:08 PM 43.0506 -77.2983 95° East 220 253 9,900  Level Cleveland Center
Wed 01:29:10 PM 43.0439 -77.2133 96° East 226 260 11,500 1,452 Climbing Cleveland Center
Wed 01:30:12 PM 43.0369 -77.1219 96° East 241 277 12,900 1,500 Climbing Cleveland Center
Wed 01:31:14 PM 43.0303 -77.0303 96° East 242 278 14,600 1,597 Climbing Cleveland Center
Wed 01:32:16 PM 43.0231 -76.9219 95° East 240 276 16,200 1,161 Climbing Cleveland Center
Wed 01:33:18 PM 43.0150 -76.8264 97° East 253 291 17,000 387 Climbing Cleveland Center
Wed 01:34:20 PM 43.0061 -76.7150 96° East 296 341 17,000 48 Level Cleveland Center
Wed 01:35:22 PM 42.9967 -76.5969 96° East 311 358 17,100 48 Climbing Cleveland Center
Wed 01:36:24 PM 42.9881 -76.4797 96° East 310 357 17,100  Level Cleveland Center
Wed 01:37:26 PM 42.9789 -76.3631 96° East 309 356 17,100  Level Cleveland Center
Wed 01:38:28 PM 42.9717 -76.2256 94° East 302 348 17,100 -45 Level Cleveland Center
Wed 01:39:39 PM 42.9606 -76.1031 97° East 311 358 17,000 -45 Descending Boston Center
Wed 01:40:40 PM 42.9517 -75.9864 96° East 311 358 17,000  Level Boston Center
Wed 01:41:41 PM 42.9428 -75.8694 96° East 311 358 17,000  Level Boston Center
Wed 01:42:38 PM 42.9317 -75.7497 97° East 311 358 17,000  Level Boston Center
Wed 01:43:40 PM 42.9206 -75.6328 97° East 311 358 17,000  Level Boston Center
Wed 01:44:40 PM 42.9111 -75.5161 96° East 311 358 17,000  Level Boston Center
Wed 01:45:41 PM 42.9019 -75.3967 96° East 311 358 17,000  Level Boston Center
Wed 01:46:39 PM 42.8922 -75.2800 96° East 311 358 17,000  Level Boston Center
Wed 01:47:40 PM 42.8789 -75.1433 98° East 322 371 17,000  Level Boston Center
Wed 01:48:39 PM 42.8692 -75.0267 96° East 327 376 17,000  Level Boston Center
Wed 01:49:39 PM 42.8572 -74.9044 98° East 316 364 17,000 -843 Level Boston Center
Wed 01:50:40 PM 42.8431 -74.7847 99° East 316 364 15,300 -1,768 Descending Boston Center
Wed 01:51:31 PM 42.8328 -74.6711 97° East 364 419 13,700 -1,700 Descending Boston Center
Wed 01:51:40 PM 42.8308 -74.6625 107° East 339 390 13,600 -1,946 Descending Boston Center
Wed 01:52:08 PM 42.8261 -74.5917 95° East 363 418 12,500 -2,066 Descending Boston Center
Wed 01:52:41 PM 42.8192 -74.5178 97° East 357 411 11,500 -1,600 Descending Boston Center
Wed 01:53:08 PM 42.8119 -74.4581 99° East 356 410 10,900 -1,158 Descending Boston Center
Wed 01:53:38 PM 42.8067 -74.3983 97° East 351 404 10,400 -1,377 Descending Boston Center
Wed 01:54:09 PM 42.8014 -74.3333 96° East 333 383 9,500 -1,672 Descending Boston Center
Wed 01:54:39 PM 42.8108 -74.2683 79° East 328 377 8,700 -1,500 Descending Boston Center
Wed 01:55:09 PM 42.8181 -74.2119 80° East 310 357 8,000 -1,400 Descending Boston Center
Wed 01:55:39 PM 42.8231 -74.1611 82° East 317 365 7,300 -1,475 Descending Boston Center
Wed 01:56:10 PM 42.8303 -74.0992 81° East 307 353 6,500 -1,452 Descending Boston Center
Wed 01:56:41 PM 42.8414 -74.0428 75° East 307 353 5,800 -1,475 Descending Boston Center
Wed 01:57:11 PM 42.8442 -73.9892 86° East 294 338 5,000 -1,500 Descending Boston Center
Wed 01:57:41 PM 42.8533 -73.9383 76° East 295 339 4,300 -1,000 Descending Boston Center
Wed 01:58:11 PM 42.8600 -73.8903 79° East 267 307 4,000 -300 Descending Boston Center
Wed 01:58:41 PM 42.8669 -73.8367 80° East 273 314 4,000  Level Boston Center
Wed 01:59:11 PM 42.8739 -73.7914 78° East 257 296 4,000  Level Boston Center
Wed 01:59:39 PM 42.8806 -73.7406 80° East 262 302 4,000  Level Boston Center
Wed 02:00:12 PM 42.8875 -73.6869 80° East 257 296 4,000  Level Boston Center
Wed 02:00:40 PM 42.8919 -73.6531 80° East 257 296 4,000  Level Boston Center
Wed 02:01:13 PM 42.8822 -73.5933 103° East 255 293 4,000  Level Boston Center
Wed 02:01:40 PM 42.8531 -73.5872 171° South 207 238 4,000  Level Boston Center
Wed 02:02:05 PM 42.8281 -73.5811 170° South 231 266 4,000 -621 Level Boston Center
Wed 02:02:38 PM 42.7928 -73.5661 163° South 212 244 3,400 -984 Descending Boston Center
Wed 02:03:06 PM 42.7678 -73.5742 193° South 219 252 3,000 -393 Descending Boston Center
Wed 02:03:39 PM 42.7569 -73.6078 246° West 172 198 3,000 -200 Level Boston Center
Wed 02:04:06 PM 42.7567 -73.6333 269° West 138 159 2,800 -590 Descending Boston Center
Wed 02:04:40 PM 42.7586 -73.6617 275° West 136 157 2,400 -750 Descending Boston Center
Wed 02:05:10 PM 42.7603 -73.6872 275° West 132 152 2,000 -787 Descending Boston Center
Wed 02:05:41 PM 42.7558 -73.7153 258° West 136 157 1,600 -828 Descending Boston Center
Wed 02:06:08 PM 42.7514 -73.7408 257° West 138 159 1,200 -800 Descending Boston Center
Wed 02:07:11 PM 42.7489 -73.7858 266° West 123 142 400 -762 Descending Boston Center

Login

Don't have an account? Register now (free) for customized features, flight alerts, and more!